Location: Seattle
(47.6064°N, 122.3308°W)
Time: 06:05:35
(UTC-07:00)

RS-15 - Visible Passes

Search period start: 01 April 2023 00:00
Search period end: 11 April 2023 00:00
Orbit: 1884 x 2161 km, 64.8° (Epoch: 01 April)

Date Brightness Start Highest point End Pass type
(mag) Time Alt. Az. Time Alt. Az. Time Alt. Az.
01 Apr 8.0 00:22:29 10° NW 00:34:36 73° NE 00:37:05 60° ESE visible
01 Apr 8.5 02:35:42 10° NW 02:44:48 39° W 02:44:48 39° W visible
01 Apr 9.2 21:31:53 10° NW 21:42:52 36° N 21:53:27 10° ENE visible
01 Apr 8.3 23:46:17 10° NW 23:58:18 62° NE 00:02:05 46° E visible
02 Apr 8.2 01:59:21 10° NW 02:09:49 50° W 02:09:49 50° W visible
02 Apr 9.2 20:55:04 10° WNW 21:05:59 35° N 21:16:31 10° ENE visible
02 Apr 8.5 23:10:01 10° NW 23:21:53 53° NE 23:27:07 34° E visible
03 Apr 8.0 01:23:07 10° NW 01:34:49 64° WSW 01:34:51 64° WSW visible
03 Apr 9.4 03:38:36 10° WNW 03:42:35 15° W 03:42:35 15° W visible
03 Apr 9.3 20:18:08 10° WNW 20:29:04 35° N 20:39:41 10° ENE visible
03 Apr 8.7 22:33:43 10° NW 22:45:20 47° NNE 22:52:10 25° E visible
04 Apr 7.8 00:46:56 10° NW 00:58:55 78° WSW 00:59:54 74° SSW visible
04 Apr 9.1 03:01:11 10° NW 03:07:39 21° W 03:07:39 21° W visible
04 Apr 8.9 21:57:17 10° NW 22:08:40 42° NNE 22:17:15 17° E visible
05 Apr 7.9 00:10:46 10° NW 00:22:53 88° NE 00:25:00 67° SE visible
05 Apr 8.8 02:24:22 10° NW 02:32:44 29° W 02:32:44 29° W visible
05 Apr 9.0 21:20:45 10° NW 21:31:55 38° NNE 21:42:22 11° E visible
05 Apr 8.0 23:34:36 10° NW 23:46:44 75° NE 23:50:06 53° ESE visible
06 Apr 8.5 01:47:51 10° NW 01:57:50 39° WSW 01:57:50 39° WSW visible
06 Apr 9.1 20:44:05 10° NW 20:55:05 36° N 21:05:39 10° ENE visible
06 Apr 8.2 22:58:25 10° NW 23:10:27 64° NE 23:15:14 40° ESE visible
07 Apr 8.2 01:11:30 10° NW 01:22:38 49° WSW 01:22:58 49° WSW visible
07 Apr 9.2 20:07:17 10° WNW 20:18:12 35° N 20:28:44 10° ENE visible
07 Apr 8.4 22:22:10 10° NW 22:34:02 55° NE 22:40:23 29° E visible
08 Apr 8.0 00:35:15 10° NW 00:46:52 62° WSW 00:48:08 59° SW visible
08 Apr 9.4 02:51:00 10° WNW 02:55:52 15° W 02:55:52 15° W visible
08 Apr 8.6 21:45:51 10° NW 21:57:30 48° NNE 22:05:34 20° E visible
08 Apr 7.9 23:59:03 10° NW 00:10:59 76° WSW 00:13:19 62° S visible
09 Apr 9.2 02:13:26 10° NW 02:21:03 21° W 02:21:03 21° W visible
09 Apr 8.8 21:09:27 10° NW 21:20:52 42° NNE 21:30:46 13° E visible
09 Apr 7.9 23:22:53 10° NW 23:34:59 90° ENE 23:38:31 54° SE visible
10 Apr 8.9 01:36:34 10° NW 01:45:49 28° WSW 01:46:15 28° WSW visible
10 Apr 9.0 20:32:56 10° NW 20:44:07 39° NNE 20:54:48 10° E visible
10 Apr 8.0 22:46:43 10° NW 22:58:50 77° NE 23:03:44 42° SE visible
